Hourly Weather Lubumbashi

Today, 7 August, Friday

Time Temperature Precipitation Wind Pressure Humidity
00:00 +28°C° 0 mm 3 mps 721 mmHg 69%
01:00 +28°C° 0 mm 3 mps 721 mmHg 71%
02:00 +27°C° 0 mm 4 mps 721 mmHg 73%
03:00 +27°C° 0 mm 3 mps 721 mmHg 74%
04:00 +26°C° 0 mm 3 mps 721 mmHg 75%
05:00 +26°C° 0 mm 2 mps 722 mmHg 76%
06:00 +27°C° 0 mm 3 mps 722 mmHg 74%
07:00 +27°C° 0 mm 3 mps 722 mmHg 72%
08:00 +28°C° 0 mm 4 mps 722 mmHg 69%
09:00 +29°C° 0 mm 4 mps 722 mmHg 62%
10:00 +32°C° 0 mm 5 mps 722 mmHg 55%
11:00 +33°C° 0 mm 5 mps 723 mmHg 48%
12:00 +34°C° 0 mm 5 mps 722 mmHg 45%
13:00 +35°C° 0 mm 6 mps 721 mmHg 42%
14:00 +36°C° 0 mm 6 mps 720 mmHg 38%
15:00 +36°C° 0 mm 6 mps 720 mmHg 39%
16:00 +36°C° 0 mm 6 mps 719 mmHg 40%
17:00 +35°C° 0 mm 5 mps 719 mmHg 41%
18:00 +34°C° 0 mm 5 mps 719 mmHg 44%
19:00 +33°C° 0 mm 5 mps 719 mmHg 48%
20:00 +32°C° 0 mm 4 mps 720 mmHg 51%
21:00 +32°C° 0 mm 4 mps 720 mmHg 53%
22:00 +30°C° 0 mm 4 mps 720 mmHg 54%
23:00 +30°C° 0 mm 4 mps 721 mmHg 56%

Tomorrow, 8 August, Saturday

Time Temperature Precipitation Wind Pressure Humidity
00:00 +29°C° 0.6 mm 4 mps 720 mmHg 60%
01:00 +28°C° 0.6 mm 4 mps 720 mmHg 65%
02:00 +28°C° 0.6 mm 4 mps 719 mmHg 69%
03:00 +27°C° 0.5 mm 4 mps 719 mmHg 71%
04:00 +27°C° 0.5 mm 4 mps 719 mmHg 73%
05:00 +27°C° 0.5 mm 4 mps 719 mmHg 75%
06:00 +27°C° 0.2 mm 5 mps 720 mmHg 74%
07:00 +28°C° 0.2 mm 6 mps 720 mmHg 72%
08:00 +28°C° 0.2 mm 7 mps 721 mmHg 70%
09:00 +29°C° 0 mm 6 mps 721 mmHg 68%
10:00 +30°C° 0 mm 6 mps 721 mmHg 65%
11:00 +32°C° 0 mm 5 mps 721 mmHg 63%
12:00 +33°C° 0.3 mm 6 mps 720 mmHg 58%
13:00 +34°C° 0.3 mm 6 mps 719 mmHg 53%
14:00 +36°C° 0.3 mm 6 mps 718 mmHg 48%
15:00 +35°C° 0.1 mm 5 mps 717 mmHg 49%
16:00 +35°C° 0.1 mm 5 mps 717 mmHg 50%
17:00 +35°C° 0.1 mm 5 mps 716 mmHg 51%
18:00 +33°C° 1.4 mm 5 mps 717 mmHg 58%
19:00 +30°C° 1.4 mm 5 mps 717 mmHg 66%
20:00 +29°C° 1.4 mm 5 mps 717 mmHg 73%
21:00 +28°C° 2.3 mm 5 mps 718 mmHg 74%
22:00 +28°C° 2.3 mm 5 mps 718 mmHg 75%
23:00 +27°C° 2.3 mm 5 mps 718 mmHg 76%

Day after tomorrow, 9 August, Sunday

Time Temperature Precipitation Wind Pressure Humidity
00:00 +27°C° 0.3 mm 3 mps 718 mmHg 76%
01:00 +27°C° 0.3 mm 2 mps 718 mmHg 77%
02:00 +27°C° 0.3 mm 1 mps 718 mmHg 77%
03:00 +27°C° 0.1 mm 2 mps 717 mmHg 79%
04:00 +27°C° 0.1 mm 2 mps 717 mmHg 80%
05:00 +26°C° 0.1 mm 3 mps 717 mmHg 81%
06:00 +26°C° 0.1 mm 3 mps 718 mmHg 81%
07:00 +26°C° 0.1 mm 4 mps 718 mmHg 81%
08:00 +26°C° 0.1 mm 4 mps 719 mmHg 80%
09:00 +27°C° 0 mm 4 mps 719 mmHg 78%
10:00 +27°C° 0 mm 4 mps 719 mmHg 76%
11:00 +28°C° 0 mm 5 mps 719 mmHg 74%
12:00 +28°C° 0 mm 5 mps 718 mmHg 72%
13:00 +28°C° 0 mm 6 mps 718 mmHg 71%
14:00 +29°C° 0 mm 6 mps 717 mmHg 70%
15:00 +29°C° 0 mm 6 mps 717 mmHg 71%
16:00 +29°C° 0 mm 6 mps 717 mmHg 71%
17:00 +28°C° 0 mm 6 mps 717 mmHg 72%
18:00 +28°C° 0.1 mm 6 mps 717 mmHg 73%
19:00 +28°C° 0.1 mm 6 mps 718 mmHg 74%
20:00 +27°C° 0.1 mm 6 mps 718 mmHg 74%
21:00 +27°C° 0.1 mm 6 mps 718 mmHg 76%
22:00 +27°C° 0.1 mm 6 mps 719 mmHg 77%
23:00 +26°C° 0.1 mm 7 mps 719 mmHg 79%

10 August, Monday

Time Temperature Precipitation Wind Pressure Humidity
00:00 +26°C° 0 mm 7 mps 719 mmHg 79%
01:00 +26°C° 0 mm 7 mps 719 mmHg 80%
02:00 +24°C° 0 mm 7 mps 718 mmHg 81%
03:00 +24°C° 0 mm 6 mps 718 mmHg 81%
04:00 +24°C° 0 mm 6 mps 718 mmHg 82%
05:00 +24°C° 0 mm 6 mps 718 mmHg 83%
06:00 +24°C° 0 mm 6 mps 719 mmHg 81%
07:00 +26°C° 0 mm 6 mps 719 mmHg 79%
08:00 +26°C° 0 mm 6 mps 720 mmHg 78%
09:00 +27°C° 0 mm 7 mps 720 mmHg 73%
10:00 +28°C° 0 mm 7 mps 720 mmHg 69%
11:00 +29°C° 0 mm 7 mps 720 mmHg 65%
12:00 +30°C° 0 mm 7 mps 720 mmHg 62%
13:00 +32°C° 0 mm 6 mps 719 mmHg 59%
14:00 +32°C° 0 mm 6 mps 719 mmHg 56%
15:00 +32°C° 0.1 mm 6 mps 719 mmHg 56%
16:00 +32°C° 0.1 mm 6 mps 718 mmHg 57%
17:00 +32°C° 0.1 mm 6 mps 718 mmHg 58%
18:00 +30°C° 0.1 mm 5 mps 718 mmHg 62%
19:00 +29°C° 0.1 mm 5 mps 719 mmHg 66%
20:00 +28°C° 0.1 mm 5 mps 719 mmHg 70%
21:00 +28°C° 0 mm 5 mps 720 mmHg 70%
22:00 +27°C° 0 mm 5 mps 720 mmHg 69%
23:00 +27°C° 0 mm 5 mps 721 mmHg 69%

11 August, Tuesday

Time Temperature Precipitation Wind Pressure Humidity
00:00 +27°C° 0 mm 5 mps 720 mmHg 70%
01:00 +26°C° 0 mm 5 mps 720 mmHg 72%
02:00 +26°C° 0 mm 5 mps 720 mmHg 73%
03:00 +25°C° 0 mm 4 mps 720 mmHg 75%
04:00 +25°C° 0 mm 4 mps 720 mmHg 77%
05:00 +25°C° 0 mm 3 mps 720 mmHg 78%
06:00 +25°C° 0 mm 4 mps 720 mmHg 77%
07:00 +26°C° 0 mm 4 mps 721 mmHg 75%
08:00 +26°C° 0 mm 4 mps 721 mmHg 73%
09:00 +27°C° 0 mm 4 mps 721 mmHg 70%
10:00 +28°C° 0 mm 4 mps 721 mmHg 66%
11:00 +29°C° 0 mm 5 mps 721 mmHg 63%
12:00 +30°C° 0 mm 5 mps 720 mmHg 57%
13:00 +33°C° 0 mm 5 mps 720 mmHg 52%
14:00 +34°C° 0 mm 5 mps 719 mmHg 46%
15:00 +34°C° 0 mm 5 mps 719 mmHg 46%
16:00 +35°C° 0 mm 5 mps 718 mmHg 45%
17:00 +35°C° 0 mm 5 mps 718 mmHg 44%
18:00 +34°C° 0 mm 4 mps 718 mmHg 48%
19:00 +33°C° 0 mm 4 mps 718 mmHg 51%
20:00 +31°C° 0 mm 3 mps 719 mmHg 55%
21:00 +30°C° 0 mm 4 mps 719 mmHg 58%
22:00 +29°C° 0 mm 4 mps 719 mmHg 61%
23:00 +29°C° 0 mm 4 mps 719 mmHg 64%

12 August, Wednesday

Time Temperature Precipitation Wind Pressure Humidity
00:00 +28°C° 0 mm 4 mps 719 mmHg 67%
01:00 +28°C° 0 mm 4 mps 719 mmHg 70%
02:00 +27°C° 0 mm 4 mps 719 mmHg 72%
03:00 +27°C° 0.3 mm 4 mps 719 mmHg 74%
04:00 +26°C° 0.3 mm 4 mps 719 mmHg 76%
05:00 +26°C° 0.3 mm 4 mps 719 mmHg 78%
06:00 +26°C° 0.8 mm 4 mps 719 mmHg 78%
07:00 +27°C° 0.8 mm 4 mps 720 mmHg 78%
08:00 +27°C° 0.8 mm 4 mps 721 mmHg 77%
09:00 +28°C° 0.3 mm 4 mps 721 mmHg 73%
10:00 +29°C° 0.3 mm 5 mps 720 mmHg 69%
11:00 +30°C° 0.3 mm 5 mps 720 mmHg 66%
12:00 +32°C° 0 mm 5 mps 720 mmHg 60%
13:00 +34°C° 0 mm 5 mps 719 mmHg 54%
14:00 +35°C° 0 mm 5 mps 718 mmHg 49%
15:00 +35°C° 0 mm 4 mps 718 mmHg 49%
16:00 +34°C° 0 mm 3 mps 718 mmHg 50%
17:00 +34°C° 0 mm 2 mps 717 mmHg 51%
18:00 +32°C° 0.1 mm 2 mps 718 mmHg 53%
19:00 +32°C° 0.1 mm 2 mps 718 mmHg 56%
20:00 +31°C° 0.1 mm 2 mps 718 mmHg 59%
21:00 +30°C° 0.1 mm 2 mps 719 mmHg 62%
22:00 +30°C° 0.1 mm 3 mps 719 mmHg 64%
23:00 +29°C° 0.1 mm 3 mps 719 mmHg 67%
Show more